Time,TemperatureF,DewpointF,PressureIn,WindDirection,WindDirectionDegrees,WindSpeedMPH,WindSpeedGustMPH,Humidity,HourlyPrecipIn,Conditions,Clouds,dailyrainin,SoftwareType,DateUTC
2013-06-09 00:02:00,59.0,-99.9,30.12,NNW,345,4.0,9.0,-999,-99.99,,,-99.99,,2013-06-09 07:02:00,
2013-06-09 00:12:00,59.0,-99.9,30.12,North,349,2.0,5.0,-999,-99.99,,,-99.99,,2013-06-09 07:12:00,
2013-06-09 00:22:00,59.0,-99.9,30.12,NNE,23,1.0,5.0,-999,-99.99,,,-99.99,,2013-06-09 07:22:00,
2013-06-09 00:32:00,59.0,-99.9,30.12,North,349,4.0,6.0,-999,-99.99,,,-99.99,,2013-06-09 07:32:00,
2013-06-09 00:42:00,59.0,-99.9,30.12,North,349,4.0,6.0,-999,-99.99,,,-99.99,,2013-06-09 07:42:00,
2013-06-09 01:02:00,58.0,-99.9,30.12,SSW,212,2.0,3.0,-999,-99.99,,,-99.99,,2013-06-09 08:02:00,
2013-06-09 01:12:00,58.0,-99.9,30.13,WNW,284,4.0,6.0,-999,-99.99,,,-99.99,,2013-06-09 08:12:00,
2013-06-09 01:22:00,58.0,-99.9,30.13,SW,233,2.0,5.0,-999,-99.99,,,-99.99,,2013-06-09 08:22:00,
2013-06-09 01:32:00,58.0,-99.9,30.13,SSW,202,0.0,4.0,-999,-99.99,,,-99.99,,2013-06-09 08:32:00,
2013-06-09 01:42:00,57.0,-99.9,30.12,NW,320,1.0,2.0,-999,-99.99,,,-99.99,,2013-06-09 08:42:00,
2013-06-09 01:53:00,57.0,-99.9,30.12,SW,236,2.0,4.0,-999,-99.99,,,-99.99,,2013-06-09 08:53:00,
2013-06-09 02:02:00,57.0,-99.9,30.12,North,352,1.0,5.0,-999,-99.99,,,-99.99,,2013-06-09 09:02:00,
2013-06-09 02:12:00,57.0,-99.9,30.12,SW,219,2.0,6.0,-999,-99.99,,,-99.99,,2013-06-09 09:12:00,
2013-06-09 02:22:00,57.0,-99.9,30.12,West,266,3.0,4.0,-999,-99.99,,,-99.99,,2013-06-09 09:22:00,
2013-06-09 02:33:00,56.0,-99.9,30.12,SSW,197,2.0,3.0,-999,-99.99,,,-99.99,,2013-06-09 09:33:00,
2013-06-09 02:43:00,57.0,-99.9,30.11,NE,51,2.0,5.0,-999,-99.99,,,-99.99,,2013-06-09 09:43:00,
2013-06-09 02:53:00,57.0,-99.9,30.11,ESE,109,1.0,4.0,-999,-99.99,,,-99.99,,2013-06-09 09:53:00,
2013-06-09 03:03:00,56.0,-99.9,30.11,NNW,344,0.0,5.0,-999,-99.99,,,-99.99,,2013-06-09 10:03:00,
2013-06-09 03:13:00,56.0,-99.9,30.12,NW,311,2.0,4.0,-999,-99.99,,,-99.99,,2013-06-09 10:13:00,
2013-06-09 03:23:00,56.0,-99.9,30.12,NW,311,2.0,4.0,-999,-99.99,,,-99.99,,2013-06-09 10:23:00,
2013-06-09 03:33:00,56.0,-99.9,30.12,NW,318,2.0,5.0,-999,-99.99,,,-99.99,,2013-06-09 10:33:00,
2013-06-09 03:43:00,56.0,-99.9,30.12,West,274,2.0,4.0,-999,-99.99,,,-99.99,,2013-06-09 10:43:00,
2013-06-09 03:52:00,56.0,-99.9,30.12,ENE,70,1.0,3.0,-999,-99.99,,,-99.99,,2013-06-09 10:52:00,
2013-06-09 04:02:00,55.0,-99.9,30.11,NE,51,2.0,6.0,-999,-99.99,,,-99.99,,2013-06-09 11:02:00,
2013-06-09 04:12:00,55.0,-99.9,30.11,WNW,286,0.0,3.0,-999,-99.99,,,-99.99,,2013-06-09 11:12:00,
2013-06-09 04:22:00,55.0,-99.9,30.11,SW,228,1.0,2.0,-999,-99.99,,,-99.99,,2013-06-09 11:22:00,
2013-06-09 04:32:00,55.0,-99.9,30.11,ESE,104,2.0,3.0,-999,-99.99,,,-99.99,,2013-06-09 11:32:00,
2013-06-09 04:42:00,55.0,-99.9,30.11,SSE,161,1.0,5.0,-999,-99.99,,,-99.99,,2013-06-09 11:42:00,
2013-06-09 04:53:00,55.0,-99.9,30.11,SSE,149,1.0,3.0,-999,-99.99,,,-99.99,,2013-06-09 11:53:00,
2013-06-09 05:03:00,55.0,-99.9,30.11,NNW,339,2.0,4.0,-999,-99.99,,,-99.99,,2013-06-09 12:03:00,
2013-06-09 05:12:00,55.0,-99.9,30.12,NW,324,3.0,4.0,-999,-99.99,,,-99.99,,2013-06-09 12:12:00,
2013-06-09 05:22:00,55.0,-99.9,30.12,WNW,291,0.0,4.0,-999,-99.99,,,-99.99,,2013-06-09 12:22:00,
2013-06-09 05:32:00,55.0,-99.9,30.12,WNW,288,1.0,1.0,-999,-99.99,,,-99.99,,2013-06-09 12:32:00,
2013-06-09 05:42:00,55.0,-99.9,30.11,SE,133,1.0,4.0,-999,-99.99,,,-99.99,,2013-06-09 12:42:00,
2013-06-09 05:53:00,55.0,-99.9,30.12,South,171,1.0,4.0,-999,-99.99,,,-99.99,,2013-06-09 12:53:00,
2013-06-09 06:02:00,54.0,-99.9,30.12,SW,227,3.0,5.0,-999,-99.99,,,-99.99,,2013-06-09 13:02:00,
2013-06-09 06:12:00,54.0,-99.9,30.12,SSW,199,2.0,3.0,-999,-99.99,,,-99.99,,2013-06-09 13:12:00,
2013-06-09 06:23:00,55.0,-99.9,30.11,SSW,208,1.0,7.0,-999,-99.99,,,-99.99,,2013-06-09 13:23:00,
2013-06-09 06:32:00,54.0,-99.9,30.11,SSE,148,3.0,5.0,-999,-99.99,,,-99.99,,2013-06-09 13:32:00,
2013-06-09 06:42:00,54.0,-99.9,30.12,East,87,4.0,8.0,-999,-99.99,,,-99.99,,2013-06-09 13:42:00,
2013-06-09 06:52:00,55.0,-99.9,30.12,SSE,154,3.0,5.0,-999,-99.99,,,-99.99,,2013-06-09 13:52:00,
2013-06-09 07:02:00,54.0,-99.9,30.12,ESE,113,5.0,8.0,-999,-99.99,,,-99.99,,2013-06-09 14:02:00,
2013-06-09 07:12:00,54.0,-99.9,30.12,East,92,4.0,9.0,-999,-99.99,,,-99.99,,2013-06-09 14:12:00,
2013-06-09 07:22:00,54.0,-99.9,30.12,SE,134,5.0,8.0,-999,-99.99,,,-99.99,,2013-06-09 14:22:00,
2013-06-09 07:32:00,55.0,-99.9,30.12,East,90,4.0,7.0,-999,-99.99,,,-99.99,,2013-06-09 14:32:00,
2013-06-09 07:43:00,55.0,-99.9,30.12,ESE,112,2.0,4.0,-999,-99.99,,,-99.99,,2013-06-09 14:43:00,
2013-06-09 07:52:00,55.0,-99.9,30.12,East,86,2.0,8.0,-999,-99.99,,,-99.99,,2013-06-09 14:52:00,
2013-06-09 08:02:00,55.0,-99.9,30.12,NNE,31,3.0,6.0,-999,-99.99,,,-99.99,,2013-06-09 15:02:00,
2013-06-09 08:12:00,55.0,-99.9,30.12,SE,129,1.0,4.0,-999,-99.99,,,-99.99,,2013-06-09 15:12:00,
2013-06-09 08:22:00,55.0,-99.9,30.12,WNW,293,1.0,6.0,-999,-99.99,,,-99.99,,2013-06-09 15:22:00,
2013-06-09 08:33:00,55.0,-99.9,30.12,NNW,333,0.0,3.0,-999,-99.99,,,-99.99,,2013-06-09 15:33:00,
2013-06-09 08:44:00,55.0,-99.9,30.13,SW,219,0.0,5.0,-999,-99.99,,,-99.99,,2013-06-09 15:44:00,
2013-06-09 08:53:00,55.0,-99.9,30.13,NW,317,2.0,5.0,-999,-99.99,,,-99.99,,2013-06-09 15:53:00,
2013-06-09 09:03:00,55.0,-99.9,30.13,NE,35,2.0,6.0,-999,-99.99,,,-99.99,,2013-06-09 16:03:00,
2013-06-09 09:13:00,55.0,-99.9,30.13,WSW,253,1.0,5.0,-999,-99.99,,,-99.99,,2013-06-09 16:13:00,
2013-06-09 09:23:00,55.0,-99.9,30.13,East,94,3.0,7.0,-999,-99.99,,,-99.99,,2013-06-09 16:23:00,
2013-06-09 09:33:00,56.0,-99.9,30.13,NNE,33,1.0,6.0,-999,-99.99,,,-99.99,,2013-06-09 16:33:00,
2013-06-09 09:43:00,56.0,-99.9,30.13,NNW,335,1.0,3.0,-999,-99.99,,,-99.99,,2013-06-09 16:43:00,
2013-06-09 09:53:00,56.0,-99.9,30.13,SE,140,4.0,5.0,-999,-99.99,,,-99.99,,2013-06-09 16:53:00,
2013-06-09 10:03:00,56.0,-99.9,30.13,NE,52,3.0,6.0,-999,-99.99,,,-99.99,,2013-06-09 17:03:00,
2013-06-09 10:12:00,56.0,-99.9,30.13,SE,124,5.0,7.0,-999,-99.99,,,-99.99,,2013-06-09 17:12:00,
2013-06-09 10:22:00,56.0,-99.9,30.14,WNW,285,2.0,6.0,-999,-99.99,,,-99.99,,2013-06-09 17:22:00,
2013-06-09 10:32:00,56.0,-99.9,30.14,SSE,150,4.0,7.0,-999,-99.99,,,-99.99,,2013-06-09 17:32:00,
2013-06-09 10:42:00,56.0,-99.9,30.14,ESE,116,4.0,6.0,-999,-99.99,,,-99.99,,2013-06-09 17:42:00,
2013-06-09 10:52:00,55.0,-99.9,30.14,WNW,285,6.0,8.0,-999,-99.99,,,-99.99,,2013-06-09 17:52:00,
2013-06-09 11:03:00,55.0,-99.9,30.14,West,280,5.0,7.0,-999,-99.99,,,-99.99,,2013-06-09 18:03:00,
2013-06-09 11:12:00,55.0,-99.9,30.14,WNW,285,5.0,6.0,-999,-99.99,,,-99.99,,2013-06-09 18:12:00,
2013-06-09 11:22:00,55.0,-99.9,30.14,WNW,284,6.0,7.0,-999,-99.99,,,-99.99,,2013-06-09 18:22:00,
2013-06-09 11:33:00,55.0,-99.9,30.14,West,266,3.0,6.0,-999,-99.99,,,-99.99,,2013-06-09 18:33:00,
2013-06-09 11:42:00,55.0,-99.9,30.14,West,266,3.0,6.0,-999,-99.99,,,-99.99,,2013-06-09 18:42:00,
2013-06-09 11:52:00,55.0,-99.9,30.14,West,266,3.0,6.0,-999,-99.99,,,-99.99,,2013-06-09 18:52:00,
2013-06-09 12:13:00,55.0,-99.9,30.14,WNW,289,5.0,7.0,-999,-99.99,,,-99.99,,2013-06-09 19:13:00,
2013-06-09 12:22:00,56.0,-99.9,30.14,WNW,287,4.0,6.0,-999,-99.99,,,-99.99,,2013-06-09 19:22:00,
2013-06-09 12:32:00,57.0,-99.9,30.14,WNW,288,3.0,7.0,-999,-99.99,,,-99.99,,2013-06-09 19:32:00,
2013-06-09 12:43:00,57.0,-99.9,30.14,West,275,7.0,8.0,-999,-99.99,,,-99.99,,2013-06-09 19:43:00,
2013-06-09 12:52:00,57.0,-99.9,30.14,WNW,297,3.0,8.0,-999,-99.99,,,-99.99,,2013-06-09 19:52:00,
2013-06-09 13:03:00,56.0,-99.9,30.13,WNW,286,7.0,7.0,-999,-99.99,,,-99.99,,2013-06-09 20:03:00,
2013-06-09 13:12:00,57.0,-99.9,30.13,WNW,294,5.0,6.0,-999,-99.99,,,-99.99,,2013-06-09 20:12:00,
2013-06-09 13:22:00,57.0,-99.9,30.13,West,278,6.0,6.0,-999,-99.99,,,-99.99,,2013-06-09 20:22:00,
2013-06-09 13:32:00,59.0,-99.9,30.12,WNW,291,6.0,7.0,-999,-99.99,,,-99.99,,2013-06-09 20:32:00,
2013-06-09 13:42:00,58.0,-99.9,30.12,NW,317,7.0,8.0,-999,-99.99,,,-99.99,,2013-06-09 20:42:00,
2013-06-09 13:52:00,58.0,-99.9,30.12,NW,321,7.0,8.0,-999,-99.99,,,-99.99,,2013-06-09 20:52:00,
2013-06-09 14:03:00,58.0,-99.9,30.12,NW,318,7.0,9.0,-999,-99.99,,,-99.99,,2013-06-09 21:03:00,
2013-06-09 14:12:00,59.0,-99.9,30.11,NW,319,2.0,8.0,-999,-99.99,,,-99.99,,2013-06-09 21:12:00,
2013-06-09 14:22:00,60.0,-99.9,30.11,NW,322,4.0,6.0,-999,-99.99,,,-99.99,,2013-06-09 21:22:00,
2013-06-09 14:33:00,61.0,-99.9,30.11,NW,316,6.0,9.0,-999,-99.99,,,-99.99,,2013-06-09 21:33:00,
2013-06-09 14:44:00,59.0,-99.9,30.11,NW,314,9.0,10.0,-999,-99.99,,,-99.99,,2013-06-09 21:44:00,
2013-06-09 14:53:00,59.0,-99.9,30.11,NW,304,9.0,9.0,-999,-99.99,,,-99.99,,2013-06-09 21:53:00,
2013-06-09 15:02:00,59.0,-99.9,30.10,WNW,298,9.0,10.0,-999,-99.99,,,-99.99,,2013-06-09 22:02:00,
2013-06-09 15:13:00,61.0,-99.9,30.10,WNW,299,5.0,9.0,-999,-99.99,,,-99.99,,2013-06-09 22:13:00,
2013-06-09 15:23:00,62.0,-99.9,30.09,NW,309,6.0,9.0,-999,-99.99,,,-99.99,,2013-06-09 22:23:00,
2013-06-09 15:33:00,61.0,-99.9,30.09,NW,309,8.0,10.0,-999,-99.99,,,-99.99,,2013-06-09 22:33:00,
2013-06-09 15:42:00,60.0,-99.9,30.09,NW,306,13.0,13.0,-999,-99.99,,,-99.99,,2013-06-09 22:42:00,
2013-06-09 15:52:00,60.0,-99.9,30.09,NW,304,11.0,13.0,-999,-99.99,,,-99.99,,2013-06-09 22:52:00,
2013-06-09 16:02:00,61.0,-99.9,30.09,NW,315,8.0,10.0,-999,-99.99,,,-99.99,,2013-06-09 23:02:00,
2013-06-09 16:12:00,60.0,-99.9,30.09,NW,321,9.0,11.0,-999,-99.99,,,-99.99,,2013-06-09 23:12:00,
2013-06-09 16:22:00,60.0,-99.9,30.09,NW,319,9.0,11.0,-999,-99.99,,,-99.99,,2013-06-09 23:22:00,
2013-06-09 16:32:00,61.0,-99.9,30.08,NW,313,8.0,9.0,-999,-99.99,,,-99.99,,2013-06-09 23:32:00,
2013-06-09 16:43:00,61.0,-99.9,30.08,NW,313,8.0,9.0,-999,-99.99,,,-99.99,,2013-06-09 23:43:00,
2013-06-09 17:32:00,64.0,-99.9,30.06,NW,306,7.0,9.0,-999,-99.99,,,-99.99,,2013-06-10 00:32:00,
2013-06-09 17:42:00,65.0,-99.9,30.06,NW,306,4.0,7.0,-999,-99.99,,,-99.99,,2013-06-10 00:42:00,
2013-06-09 17:52:00,64.0,-99.9,30.06,WNW,292,6.0,9.0,-999,-99.99,,,-99.99,,2013-06-10 00:52:00,
2013-06-09 18:03:00,63.0,-99.9,30.06,NW,307,9.0,12.0,-999,-99.99,,,-99.99,,2013-06-10 01:03:00,
2013-06-09 18:12:00,62.0,-99.9,30.05,NW,310,13.0,15.0,-999,-99.99,,,-99.99,,2013-06-10 01:12:00,
2013-06-09 18:22:00,62.0,-99.9,30.05,NW,318,11.0,15.0,-999,-99.99,,,-99.99,,2013-06-10 01:22:00,
2013-06-09 18:32:00,63.0,-99.9,30.05,NW,323,12.0,14.0,-999,-99.99,,,-99.99,,2013-06-10 01:32:00,
2013-06-09 18:43:00,63.0,-99.9,30.05,NNW,344,5.0,11.0,-999,-99.99,,,-99.99,,2013-06-10 01:43:00,
2013-06-09 18:52:00,62.0,-99.9,30.05,NNW,336,5.0,11.0,-999,-99.99,,,-99.99,,2013-06-10 01:52:00,
2013-06-09 19:02:00,62.0,-99.9,30.04,NNW,336,9.0,17.0,-999,-99.99,,,-99.99,,2013-06-10 02:02:00,
2013-06-09 19:12:00,61.0,-99.9,30.04,NNW,333,12.0,15.0,-999,-99.99,,,-99.99,,2013-06-10 02:12:00,
2013-06-09 19:22:00,61.0,-99.9,30.04,NNW,327,13.0,16.0,-999,-99.99,,,-99.99,,2013-06-10 02:22:00,
2013-06-09 19:32:00,61.0,-99.9,30.04,NNW,343,4.0,12.0,-999,-99.99,,,-99.99,,2013-06-10 02:32:00,
2013-06-09 19:42:00,60.0,-99.9,30.04,NNW,344,5.0,13.0,-999,-99.99,,,-99.99,,2013-06-10 02:42:00,
2013-06-09 19:52:00,60.0,-99.9,30.04,NNW,335,11.0,16.0,-999,-99.99,,,-99.99,,2013-06-10 02:52:00,
2013-06-09 20:02:00,60.0,-99.9,30.04,NNW,348,10.0,14.0,-999,-99.99,,,-99.99,,2013-06-10 03:02:00,
2013-06-09 20:12:00,60.0,-99.9,30.04,NNW,348,10.0,14.0,-999,-99.99,,,-99.99,,2013-06-10 03:12:00,
2013-06-09 20:22:00,60.0,-99.9,30.04,North,352,6.0,13.0,-999,-99.99,,,-99.99,,2013-06-10 03:22:00,
2013-06-09 20:33:00,59.0,-99.9,30.04,NW,320,4.0,19.0,-999,-99.99,,,-99.99,,2013-06-10 03:33:00,
2013-06-09 20:43:00,59.0,-99.9,30.04,NNW,332,9.0,13.0,-999,-99.99,,,-99.99,,2013-06-10 03:43:00,
2013-06-09 20:53:00,59.0,-99.9,30.04,NNW,334,7.0,13.0,-999,-99.99,,,-99.99,,2013-06-10 03:53:00,
2013-06-09 21:03:00,59.0,-99.9,30.04,NNW,331,6.0,10.0,-999,-99.99,,,-99.99,,2013-06-10 04:03:00,
2013-06-09 21:13:00,59.0,-99.9,30.04,NNW,340,2.0,9.0,-999,-99.99,,,-99.99,,2013-06-10 04:13:00,
2013-06-09 21:23:00,58.0,-99.9,30.04,NNW,340,2.0,8.0,-999,-99.99,,,-99.99,,2013-06-10 04:23:00,
2013-06-09 21:33:00,58.0,-99.9,30.04,NNW,337,5.0,9.0,-999,-99.99,,,-99.99,,2013-06-10 04:33:00,
2013-06-09 21:42:00,57.0,-99.9,30.05,NW,322,6.0,10.0,-999,-99.99,,,-99.99,,2013-06-10 04:42:00,
2013-06-09 21:53:00,57.0,-99.9,30.05,NW,326,5.0,9.0,-999,-99.99,,,-99.99,,2013-06-10 04:53:00,
2013-06-09 22:02:00,57.0,-99.9,30.05,NNW,346,4.0,9.0,-999,-99.99,,,-99.99,,2013-06-10 05:02:00,
2013-06-09 22:12:00,56.0,-99.9,30.06,NNW,329,6.0,8.0,-999,-99.99,,,-99.99,,2013-06-10 05:12:00,
2013-06-09 22:22:00,56.0,-99.9,30.06,NW,318,7.0,8.0,-999,-99.99,,,-99.99,,2013-06-10 05:22:00,
2013-06-09 22:32:00,56.0,-99.9,30.06,NW,319,6.0,8.0,-999,-99.99,,,-99.99,,2013-06-10 05:32:00,
2013-06-09 22:42:00,56.0,-99.9,30.06,NE,52,1.0,8.0,-999,-99.99,,,-99.99,,2013-06-10 05:42:00,
2013-06-09 22:52:00,56.0,-99.9,30.06,North,4,2.0,6.0,-999,-99.99,,,-99.99,,2013-06-10 05:52:00,
2013-06-09 23:02:00,56.0,-99.9,30.06,North,354,3.0,6.0,-999,-99.99,,,-99.99,,2013-06-10 06:02:00,
2013-06-09 23:12:00,56.0,-99.9,30.06,NW,321,6.0,9.0,-999,-99.99,,,-99.99,,2013-06-10 06:12:00,
2013-06-09 23:22:00,56.0,-99.9,30.06,NW,317,5.0,7.0,-999,-99.99,,,-99.99,,2013-06-10 06:22:00,
2013-06-09 23:32:00,56.0,-99.9,30.06,North,356,3.0,4.0,-999,-99.99,,,-99.99,,2013-06-10 06:32:00,
2013-06-09 23:42:00,56.0,-99.9,30.06,NNW,343,4.0,6.0,-999,-99.99,,,-99.99,,2013-06-10 06:42:00,
2013-06-09 23:53:00,56.0,-99.9,30.06,NW,315,3.0,6.0,-999,-99.99,,,-99.99,,2013-06-10 06:53:00,